FW0538 Weather Reports


Display with metric or nautical units.
time (UTC)temp
F
wind
direction
speed
MPH
gust
MPH
rain 1hr
in
rain 24hr
in
rain mn
in
humidity
%
barometer
mb
20260506163052 62 348 7.0 10.0 0.00 0.00 0.00 47 1016.8
20260506161549 61 325 2.0 9.0 0.00 0.00 0.00 53 1016.7
20260506160044 60 311 5.0 10.0 0.00 0.00 0.00 54 1016.5
20260506154547 60 332 4.0 9.0 0.00 0.00 0.00 54 1016.3
20260506153038 59 339 4.0 9.0 0.00 0.00 0.00 58 1016.5
20260506151538 59 341 3.0 7.0 0.00 0.00 0.00 60 1016.5
20260506150033 57 350 3.0 6.0 0.00 0.00 0.00 63 1016.5
20260506144529 56 324 2.0 6.0 0.00 0.00 0.00 67 1016.4
20260506143028 54 7 3.0 6.0 0.00 0.00 0.00 69 1016.4
20260506141528 54 339 0.0 0.0 0.00 0.00 0.00 70 1016.4
20260506140029 51 339 0.0 5.0 0.00 0.00 0.00 74 1016.1
20260506134523 50 346 4.0 7.0 0.00 0.00 0.00 75 1015.8
20260506133040 50 343 5.0 9.0 0.00 0.00 0.00 76 1015.5
20260506131526 49 360 4.0 7.0 0.00 0.00 0.00 77 1015.4
20260506130022 49 14 6.0 11.0 0.00 0.00 0.00 77 1015.2
20260506124516 49 347 5.0 9.0 0.00 0.00 0.00 77 1015.1
20260506123014 49 344 4.0 8.0 0.00 0.00 0.00 77 1015.1
20260506121512 50 321 3.0 7.0 0.00 0.00 0.00 76 1014.9
20260506120015 50 335 4.0 9.0 0.00 0.00 0.00 76 1014.6
20260506114506 51 342 5.0 10.0 0.00 0.00 0.00 75 1014.5
20260506113009 51 1 6.0 10.0 0.00 0.00 0.00 74 1014.4
20260506111503 51 326 5.0 9.0 0.00 0.00 0.00 74 1014.3
20260506110002 51 334 6.0 10.0 0.00 0.00 0.00 74 1014.1
20260506104601 51 354 6.0 11.0 0.00 0.00 0.00 73 1014.0
20260506103100 52 313 5.0 10.0 0.00 0.00 0.00 72 1013.9
20260506101556 53 56 6.0 15.0 0.00 0.00 0.00 70 1013.5
20260506100053 54 18 5.0 13.0 0.00 0.00 0.00 67 1013.5
20260506094547 54 326 6.0 11.0 0.00 0.00 0.00 68 1013.2
20260506093045 54 9 5.0 10.0 0.00 0.00 0.00 67 1013.2
20260506091542 54 349 2.0 8.0 0.00 0.00 0.00 67 1013.1
20260506090040 55 335 6.0 11.0 0.00 0.00 0.00 64 1013.0
20260506084542 55 49 7.0 11.0 0.00 0.00 0.00 64 1013.0
20260506083037 56 323 7.0 13.0 0.00 0.00 0.00 63 1012.9
20260506081534 56 314 8.0 13.0 0.00 0.00 0.00 64 1013.0
20260506073029 55 347 5.0 8.0 0.00 0.00 0.00 63 1012.8
20260506071526 55 334 3.0 6.0 0.00 0.00 0.00 64 1012.6
20260506061519 57 324 5.0 9.0 0.00 0.00 0.00 56 1012.2
20260506044517 60 338 0.0 7.0 0.00 0.01 0.00 56 1011.0
20260506043014 60 330 5.0 10.0 0.00 0.01 0.00 56 1010.8
20260506041514 61 27 5.0 9.0 0.00 0.01 0.00 56 1010.8
20260506040025 61 358 5.0 12.0 0.00 0.01 0.00 54 1010.9
20260506034512 62 56 0.0 2.0 0.00 0.04 0.00 53 1010.5
20260506033012 62 356 4.0 8.0 0.00 0.04 0.00 52 1010.1
20260506031511 62 335 5.0 8.0 0.00 0.04 0.00 52 1009.8
20260506030012 62 316 2.0 11.0 0.00 0.04 0.00 53 1009.8
20260506024510 63 323 7.0 11.0 0.00 0.06 0.00 52 1009.6
20260506023009 65 311 7.0 12.0 0.00 0.06 0.00 49 1009.6
20260506021516 67 300 5.0 10.0 0.00 0.06 0.00 45 1009.4
20260506020007 66 302 0.0 7.0 0.00 0.06 0.00 43 1009.5
20260506014507 67 342 0.0 9.0 0.00 0.23 0.00 40 1009.3
20260506013006 68 297 2.0 8.0 0.00 0.23 0.00 39 1009.4
20260506011504 69 326 0.0 5.0 0.00 0.23 0.00 37 1009.6
20260506010002 69 319 1.0 7.0 0.00 0.23 0.00 39 1009.6
20260506004604 68 272 1.0 7.0 0.00 0.27 0.00 39 1009.7
20260506003058 67 341 0.0 2.0 0.00 0.27 0.00 42 1009.7
20260506001559 68 315 4.0 8.0 0.00 0.27 0.00 42 1009.6
20260506000057 69 343 5.0 9.0 0.00 0.27 0.00 42 1009.7
20260505234607 68 86 0.0 7.0 0.00 0.27 0.00 41 1009.8
20260505233052 67 311 0.0 8.0 0.00 0.27 0.00 42 1009.9
20260505231550 68 245 0.0 7.0 0.00 0.27 0.00 44 1010.0
20260505230049 68 304 6.0 12.0 0.00 0.27 0.00 44 1010.1
20260505224548 67 41 0.0 5.0 0.00 0.27 0.00 41 1010.4
20260505223046 67 302 0.0 11.0 0.00 0.27 0.00 43 1010.6
20260505221544 66 101 5.0 10.0 0.00 0.27 0.00 43 1010.8
20260505220042 65 335 0.0 2.0 0.00 0.27 0.00 43 1011.1
20260505214600 65 356 0.0 8.0 0.00 0.27 0.00 48 1011.2
20260505213042 63 224 0.0 11.0 0.00 0.27 0.00 53 1011.4
20260505211535 64 224 0.0 0.0 0.00 0.27 0.00 53 1011.4
20260505210033 61 132 0.0 4.0 0.00 0.27 0.00 57 1011.6
20260505204532 61 314 2.0 6.0 0.00 0.30 0.00 57 1011.7
20260505203037 62 309 0.0 1.0 0.00 0.30 0.00 56 1011.7
20260505201536 63 85 0.0 6.0 0.00 0.30 0.00 54 1011.8
20260505200028 62 136 0.0 4.0 0.00 0.30 0.00 56 1011.9
20260505194526 61 70 3.0 6.0 0.00 0.30 0.00 61 1012.1
20260505193023 58 26 1.0 5.0 0.00 0.30 0.00 62 1012.2
20260505191522 58 66 0.0 6.0 0.00 0.30 0.00 65 1012.2
20260505190022 58 108 0.0 4.0 0.00 0.30 0.00 66 1012.2
20260505184517 56 59 1.0 6.0 0.00 0.30 0.00 66 1012.2
20260505183019 56 27 2.0 5.0 0.00 0.30 0.00 66 1012.2
20260505181514 54 314 0.0 6.0 0.00 0.30 0.00 72 1012.4
20260505180011 53 46 3.0 7.0 0.00 0.30 0.00 72 1012.2
20260505174513 53 43 2.0 6.0 0.00 0.30 0.00 74 1012.1
20260505173011 52 23 3.0 9.0 0.00 0.30 0.00 73 1011.9
20260505171504 52 331 4.0 10.0 0.00 0.30 0.00 75 1011.8
20260505170004 52 6 4.0 10.0 0.00 0.30 0.00 76 1011.8
20260505164501 51 330 2.0 7.0 0.00 0.31 0.00 79 1011.7